Location: Kershaw
(34.5481°N, 80.5823°W)
Time: 17:07:51
(UTC+00:00)

Courier 1B Rocket - All Passes

Search period start: 26 September 2022 00:00
Search period end: 06 October 2022 00:00
Orbit: 920 x 1202 km, 28.2° (Epoch: 25 September)

Date Brightness Start Highest point End Pass type
(mag) Time Alt. Az. Time Alt. Az. Time Alt. Az.
26 Sep - 01:19:09 10° SSW 01:23:01 17° SSE 01:26:51 10° ESE visible
26 Sep - 03:10:03 10° SW 03:15:43 37° SSE 03:21:26 10° E night (unlit)
26 Sep - 05:02:40 10° WSW 05:08:40 49° S 05:14:54 10° ESE night (unlit)
26 Sep - 06:55:53 10° W 07:01:42 37° SSW 07:07:50 10° SE night (unlit)
26 Sep - 08:50:17 10° WSW 08:54:34 18° SSW 08:59:02 10° SSE visible
27 Sep - 00:20:11 10° S 00:22:13 12° SSE 00:24:14 10° SE visible
27 Sep - 02:09:29 10° SW 02:14:51 30° SSE 02:20:13 10° ESE visible
27 Sep - 04:01:49 10° WSW 04:07:45 47° S 04:13:48 10° ESE night (unlit)
27 Sep - 05:54:53 10° W 06:00:46 43° S 06:06:55 10° ESE night (unlit)
27 Sep - 07:48:41 10° WSW 07:53:40 23° SSW 07:58:53 10° SSE visible
28 Sep - 01:09:06 10° SSW 01:14:02 24° SSE 01:18:52 10° ESE visible
28 Sep - 03:00:59 10° WSW 03:06:51 43° S 03:12:44 10° ESE visible
28 Sep - 04:53:55 10° WSW 04:59:50 47° S 05:05:57 10° ESE night (unlit)
28 Sep - 06:47:24 10° WSW 06:52:47 29° SSW 06:58:23 10° SE night (unlit)
28 Sep - 08:43:30 10° SW 08:45:32 11° SSW 08:47:37 10° S visible
29 Sep - 00:09:02 10° SSW 00:13:12 18° SSE 00:17:16 10° ESE visible
29 Sep - 02:00:11 10° SW 02:05:58 37° SSE 02:11:38 10° E visible
29 Sep - 03:52:58 10° WSW 03:58:56 48° S 04:04:58 10° ESE night (unlit)
29 Sep - 05:46:16 10° WSW 05:51:53 36° SSW 05:57:43 10° SE night (unlit)
29 Sep - 07:40:50 10° WSW 07:44:40 16° SSW 07:48:37 10° SSE night (unlit)
29 Sep - 23:09:40 10° S 23:12:22 13° SSE 23:15:00 10° SE daylight
30 Sep - 00:59:30 10° SW 01:05:06 31° SSE 01:10:31 10° ESE visible
30 Sep - 02:52:00 10° WSW 02:58:01 47° S 03:03:58 10° ESE visible
30 Sep - 04:45:12 10° W 04:51:00 42° S 04:56:55 10° ESE night (unlit)
30 Sep - 06:39:08 10° WSW 06:43:49 22° SSW 06:48:39 10° SSE night (unlit)
30 Sep - 23:58:59 10° SSW 00:04:13 25° SSE 00:09:16 10° ESE visible
01 Oct - 01:51:04 10° WSW 01:57:07 44° S 02:02:59 10° ESE visible
01 Oct - 03:44:10 10° WSW 03:50:06 46° S 03:56:03 10° ESE night (unlit)
01 Oct - 05:37:46 10° WSW 05:42:59 28° SSW 05:48:18 10° SE night (unlit)
01 Oct - 07:34:51 10° SW 07:35:39 10° SSW 07:36:26 10° SSW night (unlit)
01 Oct - 22:58:45 10° SSW 23:03:21 19° SSE 23:07:46 10° ESE daylight
02 Oct - 00:50:10 10° SW 00:56:12 39° SSE 01:01:58 10° E visible
02 Oct - 02:43:06 10° WSW 02:49:12 48° S 02:55:10 10° ESE visible
02 Oct - 04:36:33 10° WSW 04:42:08 35° SSW 04:47:45 10° SE night (unlit)
02 Oct - 06:31:21 10° WSW 06:34:50 15° SSW 06:38:21 10° S night (unlit)
02 Oct - 21:59:05 10° S 22:02:27 14° SSE 22:05:43 10° ESE daylight
02 Oct - 23:49:21 10° SW 23:55:17 33° SSE 00:00:54 10° ESE visible
03 Oct - 01:42:03 10° WSW 01:48:16 48° S 01:54:15 10° ESE visible
03 Oct - 03:35:24 10° W 03:41:16 41° S 03:47:03 10° ESE night (unlit)
03 Oct - 05:29:30 10° WSW 05:34:01 21° SSW 05:38:36 10° SSE night (unlit)
03 Oct - 22:48:43 10° SW 22:54:21 27° SSE 22:59:43 10° ESE daylight
04 Oct - 00:41:00 10° WSW 00:47:19 45° S 00:53:19 10° ESE visible
04 Oct - 02:34:15 10° WSW 02:40:22 46° S 02:46:18 10° ESE visible
04 Oct - 04:28:02 10° WSW 04:33:13 27° SSW 04:38:23 10° SE night (unlit)
04 Oct - 21:48:20 10° SSW 21:53:25 21° SSE 21:58:16 10° ESE daylight
04 Oct - 23:39:59 10° SW 23:46:22 40° SSE 23:52:21 10° E visible
05 Oct - 01:33:06 10° WSW 01:39:26 49° S 01:45:28 10° ESE visible
05 Oct - 03:26:42 10° W 03:32:23 34° SSW 03:37:56 10° SE visible
05 Oct - 05:21:46 10° WSW 05:25:01 15° SSW 05:28:16 10° S night (unlit)
05 Oct - 20:48:27 10° S 20:52:27 15° SSE 20:56:20 10° ESE daylight
05 Oct - 22:39:04 10° SW 22:45:22 34° SSE 22:51:18 10° E daylight
